This demonstration page uses our WeatherBlox Daily Observations layout. Learn more.

41.55636, -103.73856

Hourly Observations for May 13, 2017

Temp ( °F °C ) Dew Point ( °F °C ) Humidity (%) Winds ( mph kmh ) Pressure ( in mb ) Visibility ( mi km ) Precip ( " mm )
12:53 am 00:53 Clear 57 13.9 42 5.6 58 58 SE 14 22 29.75 1007 10 16.0934 0 0
1:53 am 01:53 Clear 55 12.8 41 5 59 59 SSE 15 24 29.72 1007 10 16.0934 0 0
2:53 am 02:53 Clear 52 11.1 40 4.4 64 64 SE 13 20 29.73 1007 10 16.0934 0 0
3:53 am 03:53 Clear 50 10 39 3.9 66 66 SE 12 19 29.72 1007 10 16.0934 0 0
4:53 am 04:53 Clear 49 9.4 39 3.9 69 69 ESE 9 15 29.71 1006 10 16.0934 0 0
5:53 am 05:53 Sunny 48 8.9 39 3.9 71 71 ESE 10 17 29.69 1005 10 16.0934 0 0
6:53 am 06:53 Sunny 52 11.1 40 4.4 64 64 ESE 13 20 29.68 1005 10 16.0934 0 0
7:53 am 07:53 Sunny 56 13.3 41 5 57 57 ESE 13 20 29.67 1005 10 16.0934 0 0
8:53 am 08:53 Sunny 59 15 43 6.1 56 56 ESE 9 15 29.66 1004 10 16.0934 0 0
9:53 am 09:53 Sunny 66 18.9 45 7.2 47 47 ESE 9 15 29.62 1003 10 16.0934 0 0
10:53 am 10:53 Sunny 73 22.8 47 8.3 40 40 SE 8 13 29.6 1002 10 16.0934 0 0
11:53 am 11:53 Sunny 78 25.6 48 8.9 35 35 ESE 13 20 29.58 1002 10 16.0934 0 0
12:53 pm 12:53 Sunny 82 27.8 49 9.4 32 32 SE 14 22 29.53 1000 10 16.0934 0 0
1:53 pm 13:53 Sunny 84 28.9 47 8.3 27 27 ESE 16 26 29.51 999 10 16.0934 0 0
2:53 pm 14:53 Partly Cloudy 82 27.8 47 8.3 29 29 ESE 18 30 29.5 999 10 16.0934 0 0
3:53 pm 15:53 Partly Cloudy 83 28.3 44 6.7 25 25 SE 22 35 29.47 998 10 16.0934 0 0
4:53 pm 16:53 Sunny 85 29.4 39 3.9 20 20 SSE 22 35 29.47 998 10 16.0934 0 0
5:53 pm 17:53 Sunny 84 28.9 40 4.4 21 21 SE 17 28 29.46 998 10 16.0934 0 0
6:53 pm 18:53 Sunny 82 27.8 40 4.4 22 22 SE 13 20 29.44 997 10 16.0934 0 0
7:53 pm 19:53 Sunny 77 25 49 9.4 37 37 SE 12 19 29.44 997 10 16.0934 0 0
8:53 pm 20:53 Clear 71 21.7 49 9.4 46 46 ESE 12 19 29.45 997 10 16.0934 0 0
9:53 pm 21:53 Clear 65 18.3 47 8.3 52 52 ESE 7 11 29.46 998 10 16.0934 0 0
10:53 pm 22:53 Clear 71 21.7 43 6.1 36 36 WNW 13 20 29.51 999 10 16.0934 0 0
11:53 pm 23:53 Partly Cloudy 69 20.6 37 2.8 31 31 NW 26 43 29.52 1000 10 16.0934 0 0.0254

Powered by AerisWeather